Iowa Falls, IA

11:43 AM CST on December 05, 2019 (GMT -0600)
Iowa Falls Municipal

Weather History for KIFA - November, 2019

Change the Weather History Date:

Monday, November 11, 2019

  Actual Average Record
Temperature  
Mean Temperature 16 °F -  
Max Temperature 24 °F 44 °F 69 °F (1964)
Min Temperature 7 °F 26 °F -5 °F (1986)
Degree Days  
Heating Degree Days 50    
Moisture  
Dew Point 6 °F    
Average Humidity 65    
Maximum Humidity 80    
Minimum Humidity 45    
Precipitation  
Precipitation 0.00 in - - ()
Sea Level Pressure  
Sea Level Pressure 30.49 in    
Wind  
Wind Speed 13 mph ()    
Max Wind Speed 22 mph    
Max Gust Speed 29 mph    
Visibility 8.2 miles    
Events Snow    
Averages and records for this station are not official NWS values.
T = Trace of Precipitation, MM = Missing Value Source: Averaged Metar Reports

Daily Weather History Graph

Daily Weather History Graph

Search for Another Location

Airport or City:

Astronomy

Nov. 11, 2019 Rise Set
Actual Time 6:58 AM CST 4:54 PM CST
Civil Twilight 6:28 AM CST 5:24 PM CST
Nautical Twilight 5:55 AM CST 5:58 PM CST
Astronomical Twilight 5:22 AM CST 6:31 PM CST
Moon 4:52 PM CST (11/11) 5:48 AM CST (11/11)
Length of Visible Light 10h 55m
Length of Day
9h 55m
Waxing Gibbous, 99% of the Moon is Illuminated
Nov 11
Waxing Gibbous
Nov 12
Full
Nov 19
Last Quarter
Nov 26
New
Dec 4
First Quarter

Hourly Weather History & Observations

Time (CST) Temp. Windchill Dew Point Humidity Pressure Visibility Wind Dir Wind Speed Gust Speed Precip Events Conditions
12:15 AM 24.4 °F 12.4 °F 18.1 °F 77% 30.30 in 4.0 mi North 13.8 mph 17.3 mph N/A Snow Light Snow
12:35 AM 23.0 °F 11.1 °F 17.4 °F 79% 30.31 in 1.2 mi North 12.7 mph 20.7 mph N/A Snow Light Snow
12:55 AM 22.1 °F 10.6 °F 16.7 °F 80% 30.31 in 1.5 mi North 11.5 mph 19.6 mph N/A Snow Light Snow
1:15 AM 22.1 °F 10.0 °F 16.5 °F 79% 30.33 in 2.5 mi NNW 12.7 mph 19.6 mph N/A Snow Light Snow
1:35 AM 21.2 °F 7.3 °F 15.6 °F 79% 30.34 in 1.8 mi NNW 16.1 mph 21.9 mph N/A Snow Light Snow
1:55 AM 20.8 °F 10.4 °F 15.3 °F 79% 30.34 in 1.5 mi North 9.2 mph 18.4 mph N/A Snow Light Snow
2:15 AM 20.8 °F 8.4 °F 15.3 °F 79% 30.34 in 1.5 mi NNW 12.7 mph 18.4 mph N/A Snow Light Snow
2:35 AM 20.7 °F 9.5 °F 14.2 °F 76% 30.35 in 3.0 mi NNW 10.4 mph 19.6 mph N/A Snow Light Snow
2:55 AM 20.3 °F 7.2 °F 13.1 °F 74% 30.36 in 3.0 mi NNW 13.8 mph 20.7 mph N/A Snow Light Snow
3:15 AM 20.1 °F 8.1 °F 12.9 °F 74% 30.36 in 2.0 mi North 11.5 mph 23.0 mph N/A Snow Light Snow
3:35 AM 19.9 °F 6.2 °F 12.6 °F 73% 30.37 in 3.0 mi NNW 15.0 mph 20.7 mph N/A Snow Light Snow
3:55 AM 19.2 °F 4.3 °F 12.0 °F 74% 30.37 in 5.0 mi NNW 17.3 mph 24.2 mph N/A Snow Light Snow
4:15 AM 18.7 °F 3.6 °F 11.3 °F 73% 30.38 in 7.0 mi NNW 17.3 mph 26.5 mph N/A Snow Light Snow
4:35 AM 18.9 °F 4.3 °F 10.8 °F 71% 30.39 in 10.0 mi NNW 16.1 mph 20.7 mph N/A   Overcast
4:55 AM 18.9 °F 4.3 °F 9.1 °F 66% 30.42 in 10.0 mi NNW 16.1 mph 23.0 mph N/A Snow Light Snow
5:35 AM 18.3 °F 2.2 °F 9.7 °F 69% 30.43 in 4.0 mi NNW 19.6 mph 24.2 mph N/A Snow Light Snow
5:55 AM 17.6 °F 2.7 °F 9.9 °F 72% 30.44 in 3.0 mi NNW 16.1 mph - N/A Snow Light Snow
6:15 AM 17.2 °F 2.7 °F 10.0 °F 73% 30.44 in 7.0 mi NNW 15.0 mph 21.9 mph N/A Snow Light Snow
6:35 AM 17.4 °F 3.5 °F 9.3 °F 71% 30.45 in 10.0 mi NNW 13.8 mph 24.2 mph N/A   Overcast
6:55 AM 17.4 °F 4.1 °F 9.5 °F 71% 30.46 in 10.0 mi NNW 12.7 mph 19.6 mph N/A   Overcast
7:15 AM 17.6 °F 5.7 °F 9.0 °F 69% 30.45 in 10.0 mi NNW 10.4 mph 17.3 mph N/A   Overcast
7:35 AM 17.6 °F 3.2 °F 7.7 °F 65% 30.46 in 10.0 mi North 15.0 mph 19.6 mph N/A   Overcast
7:55 AM 17.8 °F 5.2 °F 7.7 °F 65% 30.48 in 10.0 mi NNW 11.5 mph 21.9 mph N/A   Overcast
8:15 AM 18.1 °F 5.6 °F 7.7 °F 64% 30.50 in 10.0 mi NNW 11.5 mph - N/A   Overcast
8:35 AM 18.5 °F 6.1 °F 7.7 °F 63% 30.49 in 10.0 mi NNW 11.5 mph 17.3 mph N/A   Overcast
8:55 AM 18.5 °F 4.3 °F 8.2 °F 64% 30.50 in 10.0 mi NNW 15.0 mph - N/A Snow Light Snow
9:15 AM 18.5 °F 4.3 °F 9.0 °F 66% 30.51 in 3.0 mi NNW 15.0 mph 25.3 mph N/A Snow Light Snow
9:35 AM 19.2 °F 4.3 °F 8.1 °F 62% 30.51 in 10.0 mi NNW 17.3 mph 24.2 mph N/A   Overcast
10:35 AM 18.3 °F 1.8 °F 7.9 °F 64% 30.51 in - NW 20.7 mph - N/A   Unknown
10:55 AM 19.2 °F 3.4 °F 7.0 °F 59% 30.52 in 10.0 mi NW 19.6 mph 25.3 mph N/A   Mostly Cloudy
11:15 AM 19.6 °F 4.7 °F 6.1 °F 56% 30.52 in 10.0 mi NW 17.3 mph 23.0 mph N/A   Mostly Cloudy
11:35 AM 19.4 °F 4.1 °F 6.6 °F 58% 30.52 in 10.0 mi NW 18.4 mph 23.0 mph N/A   Overcast
11:55 AM 19.4 °F 4.5 °F 6.1 °F 56% 30.51 in 10.0 mi NW 17.3 mph 26.5 mph N/A   Mostly Cloudy
12:15 PM 19.2 °F 3.8 °F 4.8 °F 54% 30.51 in 10.0 mi NW 18.4 mph 26.5 mph N/A   Mostly Cloudy
12:35 PM 18.5 °F 2.9 °F 4.1 °F 54% 30.51 in 10.0 mi NW 18.4 mph 26.5 mph N/A   Mostly Cloudy
12:55 PM 19.2 °F 3.0 °F 1.0 °F 45% 30.50 in 7.0 mi NW 20.7 mph 28.8 mph N/A   Scattered Clouds
1:15 PM 20.1 °F 5.4 °F 3.0 °F 48% 30.50 in 10.0 mi NW 17.3 mph 26.5 mph N/A   Mostly Cloudy
1:35 PM 20.3 °F 5.7 °F 2.8 °F 47% 30.50 in 10.0 mi NW 17.3 mph 26.5 mph N/A   Mostly Cloudy
1:55 PM 19.6 °F 4.3 °F 2.7 °F 48% 30.50 in 10.0 mi NNW 18.4 mph 26.5 mph N/A   Mostly Cloudy
2:35 PM 19.0 °F 4.5 °F 3.0 °F 50% 30.51 in 10.0 mi NNW 16.1 mph 25.3 mph N/A   Mostly Cloudy
2:55 PM 18.5 °F 1.6 °F 4.8 °F 55% 30.51 in 10.0 mi NW 21.9 mph 25.3 mph N/A   Overcast
3:15 PM 17.4 °F 0.2 °F 2.5 °F 52% 30.52 in 10.0 mi NW 21.9 mph 27.6 mph N/A   Overcast
3:35 PM 16.7 °F 0.1 °F 2.3 °F 53% 30.52 in 10.0 mi NW 19.6 mph 26.5 mph N/A   Overcast
3:55 PM 15.8 °F -0.2 °F 3.9 °F 60% 30.52 in 10.0 mi NW 17.3 mph 21.9 mph N/A   Mostly Cloudy
4:35 PM 15.1 °F 0.5 °F 3.4 °F 60% 30.53 in 10.0 mi NW 13.8 mph 25.3 mph N/A   Scattered Clouds
4:55 PM 14.5 °F -1.8 °F 3.2 °F 61% 30.53 in 10.0 mi NW 17.3 mph 20.7 mph N/A   Scattered Clouds
5:15 PM 14.5 °F -0.2 °F 4.1 °F 63% 30.53 in 10.0 mi NW 13.8 mph 21.9 mph N/A   Mostly Cloudy
5:35 PM 14.0 °F -3.0 °F 1.4 °F 57% 30.54 in 10.0 mi NW 18.4 mph 24.2 mph N/A   Scattered Clouds
5:55 PM 13.1 °F -0.7 °F 1.6 °F 60% 30.55 in 10.0 mi NW 11.5 mph - N/A   Clear
6:15 PM 12.9 °F -3.9 °F 2.3 °F 63% 30.56 in 10.0 mi NW 17.3 mph - N/A   Clear
6:35 PM 12.7 °F -3.0 °F 2.8 °F 65% 30.57 in 10.0 mi NW 15.0 mph 20.7 mph N/A   Clear
6:55 PM 12.2 °F -3.7 °F 1.6 °F 63% 30.57 in 10.0 mi NW 15.0 mph 24.2 mph N/A   Clear
7:15 PM 11.8 °F -2.3 °F 1.2 °F 62% 30.58 in 10.0 mi NW 11.5 mph - N/A   Clear
7:35 PM 11.3 °F -4.3 °F 1.4 °F 64% 30.58 in 10.0 mi NW 13.8 mph 19.6 mph N/A   Clear
7:55 PM 10.9 °F -4.7 °F 0.9 °F 64% 30.58 in 10.0 mi NW 13.8 mph 17.3 mph N/A   Clear
8:15 PM 10.6 °F -4.5 °F 0.3 °F 63% 30.58 in 10.0 mi NW 12.7 mph 18.4 mph N/A   Clear
8:35 PM 10.4 °F -4.8 °F 0.1 °F 63% 30.58 in 10.0 mi NW 12.7 mph - N/A   Clear
8:55 PM 10.2 °F -5.7 °F -0.0 °F 63% 30.59 in 10.0 mi NW 13.8 mph - N/A   Clear
9:15 PM 9.9 °F -5.5 °F -0.0 °F 64% 30.59 in 10.0 mi NW 12.7 mph 16.1 mph N/A   Clear
9:35 PM 9.3 °F -4.6 °F 0.1 °F 66% 30.60 in 10.0 mi NW 10.4 mph - N/A   Clear
9:55 PM 9.1 °F -5.6 °F -0.4 °F 65% 30.60 in 10.0 mi NW 11.5 mph - N/A   Clear
10:15 PM 8.6 °F -5.5 °F -0.6 °F 66% 30.61 in 10.0 mi NW 10.4 mph - N/A   Clear
10:35 PM 8.2 °F -5.1 °F -0.8 °F 67% 30.61 in 10.0 mi NW 9.2 mph - N/A   Clear
11:15 PM 8.4 °F -4.9 °F -1.3 °F 65% 30.61 in 10.0 mi NW 9.2 mph 17.3 mph N/A   Clear
11:35 PM 7.7 °F -4.8 °F -1.7 °F 66% 30.61 in 10.0 mi NW 8.1 mph - N/A   Clear
11:55 PM 7.2 °F -5.4 °F -2.0 °F 66% 30.60 in 10.0 mi NW 8.1 mph - N/A   Clear